| time (UTC) | temp F | wind direction | speed MPH | gust MPH | rain 1hr in | rain 24hr in | rain mn in | humidity % | barometer mb |
| 20260901144555 | 52 | 325 | 0.0 | 5.0 | 0.00 | 0.01 | 0.00 | 83 | 1017.7 |
| 20260901143056 | 52 | 285 | 3.0 | 5.0 | 0.00 | 0.01 | 0.00 | 83 | 1017.6 |
| 20260901141550 | 52 | 283 | 0.0 | 0.0 | 0.00 | 0.01 | 0.00 | 83 | 1017.9 |
| 20260901140047 | 52 | 310 | 0.0 | 7.0 | 0.00 | 0.01 | 0.00 | 83 | 1017.9 |
| 20260901134600 | 53 | 315 | 0.0 | 6.0 | 0.00 | 0.01 | 0.01 | 82 | 1018.2 |
| 20260901133046 | 53 | 353 | 1.0 | 8.0 | 0.00 | 0.01 | 0.01 | 82 | 1018.2 |
| 20260901131542 | 53 | 341 | 0.0 | 0.0 | 0.00 | 0.01 | 0.01 | 82 | 1018.5 |
| 20260901130040 | 53 | 287 | 0.0 | 0.0 | 0.00 | 0.01 | 0.01 | 82 | 1018.9 |
| 20260901124545 | 53 | 312 | 0.0 | 0.0 | 0.00 | 0.01 | 0.01 | 84 | 1019.2 |
| 20260901123036 | 53 | 348 | 0.0 | 0.0 | 0.00 | 0.01 | 0.01 | 83 | 1019.3 |
| 20260901121534 | 53 | 317 | 0.0 | 0.0 | 0.00 | 0.01 | 0.01 | 83 | 1019.4 |
| 20260901120044 | 53 | 301 | 0.0 | 5.0 | 0.00 | 0.01 | 0.01 | 82 | 1019.5 |
| 20260901114536 | 53 | 311 | 0.0 | 0.0 | 0.00 | 0.01 | 0.01 | 82 | 1019.8 |
| 20260901113053 | 53 | 332 | 0.0 | 0.0 | 0.00 | 0.01 | 0.01 | 82 | 1019.9 |
| 20260901111529 | 53 | 311 | 0.0 | 0.0 | 0.00 | 0.01 | 0.01 | 81 | 1020.1 |
| 20260901110028 | 54 | 327 | 0.0 | 0.0 | 0.00 | 0.01 | 0.01 | 80 | 1020.1 |
| 20260901104532 | 54 | 327 | 0.0 | 0.0 | 0.00 | 0.01 | 0.01 | 79 | 1020.1 |
| 20260901103027 | 54 | 268 | 0.0 | 0.0 | 0.00 | 0.01 | 0.01 | 77 | 1020.0 |
| 20260901101626 | 55 | 258 | 0.0 | 0.0 | 0.00 | 0.01 | 0.01 | 76 | 1020.1 |
| 20260901100026 | 55 | 327 | 0.0 | 0.0 | 0.00 | 0.01 | 0.01 | 75 | 1020.3 |
| 20260901094526 | 56 | 321 | 0.0 | 0.0 | 0.00 | 0.01 | 0.01 | 74 | 1020.2 |
| 20260901093025 | 56 | 265 | 0.0 | 0.0 | 0.00 | 0.01 | 0.01 | 73 | 1020.1 |
| 20260901091527 | 56 | 311 | 0.0 | 0.0 | 0.00 | 0.01 | 0.01 | 73 | 1020.1 |
| 20260901090024 | 56 | 237 | 0.0 | 4.0 | 0.00 | 0.01 | 0.01 | 73 | 1020.5 |
| 20260901084531 | 56 | 308 | 0.0 | 0.0 | 0.00 | 0.01 | 0.01 | 72 | 1020.6 |
| 20260901083023 | 57 | 273 | 0.0 | 0.0 | 0.00 | 0.01 | 0.01 | 70 | 1020.6 |
| 20260901081523 | 57 | 319 | 0.0 | 0.0 | 0.00 | 0.01 | 0.01 | 69 | 1020.3 |
| 20260901080022 | 58 | 310 | 0.0 | 0.0 | 0.00 | 0.01 | 0.01 | 67 | 1020.3 |
| 20260901074526 | 59 | 280 | 0.0 | 0.0 | 0.00 | 0.01 | 0.01 | 66 | 1020.2 |
| 20260901073020 | 60 | 255 | 0.0 | 2.0 | 0.00 | 0.01 | 0.01 | 65 | 1020.4 |
| 20260901071520 | 61 | 292 | 0.0 | 0.0 | 0.00 | 0.01 | 0.01 | 62 | 1020.4 |
| 20260901070018 | 62 | 292 | 0.0 | 7.0 | 0.00 | 0.01 | 0.01 | 57 | 1020.4 |
| 20260901064521 | 63 | 242 | 0.0 | 8.0 | 0.00 | 0.01 | 0.01 | 54 | 1020.6 |
| 20260901063017 | 63 | 221 | 1.0 | 12.0 | 0.00 | 0.01 | 0.01 | 51 | 1020.5 |
| 20260901061515 | 64 | 242 | 1.0 | 17.0 | 0.00 | 0.01 | 0.01 | 52 | 1020.6 |
| 20260901060014 | 64 | 274 | 1.0 | 13.0 | 0.00 | 0.01 | 0.01 | 51 | 1020.6 |
| 20260901054514 | 64 | 270 | 5.0 | 18.0 | 0.00 | 0.01 | 0.01 | 50 | 1020.6 |
| 20260901053018 | 64 | 219 | 0.0 | 15.0 | 0.00 | 0.01 | 0.01 | 53 | 1020.7 |
| 20260901051512 | 64 | 254 | 0.0 | 9.0 | 0.00 | 0.01 | 0.01 | 56 | 1020.9 |
| 20260901050011 | 64 | 309 | 2.0 | 13.0 | 0.00 | 0.01 | 0.01 | 54 | 1021.0 |
| 20260901044514 | 64 | 301 | 1.0 | 15.0 | 0.00 | 0.01 | 0.01 | 50 | 1021.1 |
| 20260901043016 | 65 | 213 | 3.0 | 12.0 | 0.00 | 0.01 | 0.01 | 50 | 1021.3 |
| 20260901041506 | 64 | 279 | 4.0 | 18.0 | 0.00 | 0.01 | 0.01 | 50 | 1021.3 |
| 20260901040004 | 64 | 238 | 1.0 | 15.0 | 0.00 | 0.01 | 0.01 | 49 | 1021.4 |
| 20260901034501 | 65 | 236 | 0.0 | 14.0 | 0.00 | 0.01 | 0.01 | 51 | 1021.7 |
| 20260901033059 | 64 | 281 | 2.0 | 13.0 | 0.00 | 0.01 | 0.01 | 50 | 1022.0 |
| 20260901031559 | 64 | 213 | 1.0 | 15.0 | 0.00 | 0.01 | 0.01 | 51 | 1022.3 |
| 20260901030055 | 64 | 248 | 3.0 | 17.0 | 0.00 | 0.01 | 0.01 | 51 | 1022.5 |
| 20260901024552 | 63 | 275 | 1.0 | 14.0 | 0.00 | 0.01 | 0.01 | 51 | 1022.8 |
| 20260901023051 | 63 | 230 | 2.0 | 12.0 | 0.00 | 0.01 | 0.01 | 52 | 1023.1 |
| 20260901021607 | 63 | 250 | 1.0 | 12.0 | 0.00 | 0.01 | 0.01 | 57 | 1023.3 |
| 20260901020100 | 62 | 258 | 1.0 | 13.0 | 0.01 | 0.01 | 0.01 | 60 | 1023.7 |
| 20260901014539 | 62 | 258 | 1.0 | 10.0 | 0.01 | 0.01 | 0.01 | 65 | 1024.0 |
| 20260901013042 | 61 | 251 | 0.0 | 8.0 | 0.01 | 0.01 | 0.01 | 66 | 1024.2 |
| 20260901011539 | 60 | 287 | 0.0 | 2.0 | 0.01 | 0.01 | 0.01 | 69 | 1024.7 |
| 20260901010029 | 60 | 277 | 0.0 | 10.0 | 0.00 | 0.00 | 0.00 | 70 | 1025.0 |
| 20260901004526 | 60 | 234 | 0.0 | 10.0 | 0.00 | 0.00 | 0.00 | 69 | 1025.2 |
| 20260901003024 | 59 | 238 | 0.0 | 5.0 | 0.00 | 0.00 | 0.00 | 70 | 1025.4 |
| 20260901001525 | 58 | 301 | 0.0 | 7.0 | 0.00 | 0.00 | 0.00 | 72 | 1025.5 |
| 20260901000014 | 57 | 277 | 0.0 | 9.0 | 0.00 | 0.00 | 0.00 | 73 | 1025.8 |
| 20260831234512 | 56 | 303 | 0.0 | 9.0 | 0.00 | 0.00 | 0.00 | 72 | 1026.1 |
| 20260831233014 | 55 | 270 | 0.0 | 5.0 | 0.00 | 0.00 | 0.00 | 75 | 1026.4 |
| 20260831231504 | 55 | 257 | 0.0 | 4.0 | 0.00 | 0.00 | 0.00 | 76 | 1026.6 |
| 20260831230101 | 54 | 249 | 0.0 | 1.0 | 0.00 | 0.00 | 0.00 | 77 | 1026.9 |
| 20260831224557 | 53 | 344 | 0.0 | 0.0 | 0.00 | 0.00 | 0.00 | 79 | 1027.0 |
| 20260831223055 | 52 | 245 | 0.0 | 0.0 | 0.00 | 0.00 | 0.00 | 80 | 1027.1 |
| 20260831221553 | 52 | 261 | 0.0 | 0.0 | 0.00 | 0.00 | 0.00 | 79 | 1027.2 |
| 20260831220108 | 51 | 295 | 0.0 | 0.0 | 0.00 | 0.00 | 0.00 | 81 | 1027.0 |
| 20260831214549 | 50 | 329 | 0.0 | 0.0 | 0.00 | 0.00 | 0.00 | 84 | 1027.1 |
| 20260831213043 | 48 | 255 | 0.0 | 0.0 | 0.00 | 0.00 | 0.00 | 88 | 1027.2 |
| 20260831211538 | 46 | 279 | 0.0 | 0.0 | 0.00 | 0.00 | 0.00 | 92 | 1027.3 |
| 20260831210041 | 45 | 331 | 0.0 | 0.0 | 0.00 | 0.00 | 0.00 | 91 | 1027.3 |
| 20260831204634 | 44 | 320 | 0.0 | 0.0 | 0.00 | 0.00 | 0.00 | 91 | 1027.2 |
| 20260831203034 | 41 | 296 | 0.0 | 0.0 | 0.00 | 0.00 | 0.00 | 91 | 1027.2 |
| 20260831201540 | 41 | 296 | 0.0 | 0.0 | 0.00 | 0.00 | 0.00 | 91 | 1027.2 |
| 20260831200039 | 41 | 296 | 0.0 | 0.0 | 0.00 | 0.00 | 0.00 | 91 | 1027.1 |
| 20260831194602 | 41 | 296 | 0.0 | 0.0 | 0.00 | 0.01 | 0.00 | 91 | 1027.2 |
| 20260831193030 | 41 | 296 | 0.0 | 0.0 | 0.00 | 0.01 | 0.00 | 91 | 1027.1 |
| 20260831191534 | 41 | 296 | 0.0 | 0.0 | 0.00 | 0.01 | 0.00 | 91 | 1027.2 |
| 20260831190026 | 41 | 296 | 0.0 | 0.0 | 0.00 | 0.01 | 0.00 | 91 | 1027.3 |
| 20260831184528 | 42 | 296 | 0.0 | 0.0 | 0.00 | 0.01 | 0.00 | 91 | 1027.4 |
| 20260831183023 | 42 | 296 | 0.0 | 0.0 | 0.00 | 0.01 | 0.00 | 91 | 1027.4 |
| 20260831181524 | 42 | 296 | 0.0 | 0.0 | 0.00 | 0.01 | 0.00 | 91 | 1027.4 |
| 20260831180024 | 42 | 296 | 0.0 | 0.0 | 0.00 | 0.01 | 0.00 | 91 | 1027.6 |
| 20260831174518 | 41 | 296 | 0.0 | 0.0 | 0.00 | 0.01 | 0.00 | 92 | 1027.7 |
| 20260831173016 | 42 | 296 | 0.0 | 0.0 | 0.00 | 0.01 | 0.00 | 91 | 1027.7 |
| 20260831171516 | 41 | 296 | 0.0 | 0.0 | 0.00 | 0.01 | 0.00 | 91 | 1027.8 |
| 20260831170014 | 41 | 296 | 0.0 | 0.0 | 0.00 | 0.01 | 0.00 | 92 | 1027.9 |
| 20260831164509 | 42 | 296 | 0.0 | 0.0 | 0.00 | 0.01 | 0.00 | 92 | 1028.0 |
| 20260831163011 | 42 | 296 | 0.0 | 0.0 | 0.00 | 0.01 | 0.00 | 92 | 1028.1 |
| 20260831161511 | 43 | 296 | 0.0 | 0.0 | 0.00 | 0.01 | 0.00 | 92 | 1028.4 |
| 20260831160007 | 44 | 296 | 0.0 | 0.0 | 0.00 | 0.01 | 0.00 | 92 | 1028.5 |
| 20260831154505 | 44 | 296 | 0.0 | 0.0 | 0.00 | 0.01 | 0.00 | 92 | 1028.7 |
| 20260831153059 | 44 | 296 | 0.0 | 0.0 | 0.00 | 0.01 | 0.00 | 92 | 1028.9 |
| 20260831151603 | 43 | 296 | 0.0 | 0.0 | 0.00 | 0.01 | 0.00 | 91 | 1029.0 |
| 20260831150054 | 44 | 296 | 0.0 | 0.0 | 0.00 | 0.01 | 0.00 | 91 | 1029.0 |